This demonstration page uses our WeatherBlox Daily Observations layout. Learn more.

Left ArrowRight Arrow

Hourly Observations for January 1, 2020

Temp ( °F °C ) Dew Point ( °F °C ) Humidity (%) Winds ( mph kmh ) Pressure ( in mb ) Visibility ( mi km ) Precip ( " mm )
12:35 am 00:35 Cloudy 35 1.7 26 -3.3 70 70 W 10 17 29.93 1014 10 16 0.00 0.00
12:53 am 00:53 Cloudy 35 1.7 26 -3.3 70 70 W 9 15 29.92 1013 10 16 0.00 0.00
1:53 am 01:53 Cloudy 35 1.7 26 -3.3 70 70 W 10 17 29.92 1013 10 16 0.00 0.00
2:05 am 02:05 Cloudy 35 1.7 25 -3.9 67 67 W 8 13 29.94 1014 10 16 0.00 0.00
2:53 am 02:53 Cloudy 35 1.7 25 -3.9 67 67 W 8 13 29.93 1014 10 16 0.00 0.00
3:00 am 03:00 Cloudy 35 1.7 26 -3.3 70 70 W 9 15 29.95 1014 10 16 0.00 0.00
3:29 am 03:29 Cloudy 35 1.7 26 -3.3 70 70 W 9 15 29.95 1014 10 16 0.00 0.00
3:53 am 03:53 Cloudy 35 1.7 26 -3.3 70 70 W 10 17 29.93 1014 10 16 0.00 0.00
4:53 am 04:53 Cloudy 36 2.2 27 -2.8 70 70 W 8 13 29.93 1014 10 16 0.00 0.00
5:53 am 05:53 Cloudy 36 2.2 27 -2.8 70 70 W 9 15 29.93 1014 10 16 0.00 0.00
6:53 am 06:53 Cloudy 36 2.2 27 -2.8 70 70 WSW 6 9 29.94 1014 10 16 0.00 0.00
7:53 am 07:53 Cloudy 36 2.2 28 -2.2 73 73 WSW 9 15 29.96 1015 10 16 0.00 0.00
8:53 am 08:53 Cloudy 36 2.2 28 -2.2 73 73 WSW 7 11 29.96 1015 10 16 0.00 0.00
9:35 am 09:35 Partly Cloudy 37 2.8 27 -2.8 67 67 SW 9 15 29.99 1015 10 16 0.00 0.00
9:53 am 09:53 Mostly Sunny 38 3.3 28 -2.2 68 68 SW 9 15 29.98 1015 10 16 0.00 0.00
10:53 am 10:53 Mostly Sunny 40 4.4 29 -1.7 65 65 VRB 7 11 29.98 1015 10 16 0.00 0.00
11:42 am 11:42 Mostly Cloudy 41 5 29 -1.7 62 62 SSW 8 13 29.98 1015 10 16 0.00 0.00
11:53 am 11:53 Mostly Cloudy 43 6.1 30 -1.1 60 60 VRB 6 9 29.97 1015 10 16 0.00 0.00
12:04 pm 12:04 Partly Cloudy 42 5.6 29 -1.7 60 60 SW 9 15 29.97 1015 10 16 0.00 0.00
12:53 pm 12:53 Mostly Sunny 45 7.2 30 -1.1 56 56 VRB 7 11 29.94 1014 10 16 0.00 0.00
1:53 pm 13:53 Sunny 47 8.3 30 -1.1 52 52 SSW 8 13 29.91 1013 10 16 0.00 0.00
2:53 pm 14:53 Sunny 48 8.9 30 -1.1 50 50 SSW 9 15 29.89 1012 10 16 0.00 0.00
3:53 pm 15:53 Sunny 49 9.4 29 -1.7 46 46 SW 10 17 29.89 1012 10 16 0.00 0.00
4:53 pm 16:53 Sunny 47 8.3 27 -2.8 46 46 VRB 7 11 29.89 1012 10 16 0.00 0.00
5:53 pm 17:53 Clear 43 6.1 26 -3.3 51 51 S 7 11 29.88 1012 10 16 0.00 0.00
6:53 pm 18:53 Clear 41 5 24 -4.4 51 51 S 3 6 29.88 1012 10 16 0.00 0.00
7:53 pm 19:53 Clear 40 4.4 24 -4.4 53 53 S 3 6 29.88 1012 10 16 0.00 0.00
8:53 pm 20:53 Clear 40 4.4 23 -5 51 51 S 3 6 29.87 1012 10 16 0.00 0.00
9:53 pm 21:53 Clear 39 3.9 23 -5 53 53 VRB 5 7 29.87 1012 10 16 0.00 0.00
10:53 pm 22:53 Clear 41 5 23 -5 49 49 SSW 7 11 29.87 1012 10 16 0.00 0.00
11:53 pm 23:53 Clear 40 4.4 23 -5 51 51 VRB 6 9 29.86 1011 10 16 0.00 0.00

Powered by AerisWeather